This demonstration page uses our WeatherBlox Daily Observations layout. Learn more.

Left ArrowRight Arrow

Hourly Observations for May 24, 2021

Temp ( °F °C ) Dew Point ( °F °C ) Humidity (%) Winds ( mph kmh ) Pressure ( in mb ) Visibility ( mi km ) Precip ( " mm )
12:15 am 00:15 Cloudy 70 21 64 17.5 81 81 S 18 30 29.95 1014 10 16 N/A
12:35 am 00:35 Cloudy 70 21 63 17.3 80 80 SSW 17 28 29.96 1015 10 16 N/A
12:55 am 00:55 Cloudy with Rain 62 16.6 57 13.8 84 84 W 21 33 30.03 1017 7 11 0.02 0.51
1:15 am 01:15 Cloudy with Heavy Rain 60 15.5 58 14.5 94 94 WSW 8 13 30.03 1017 5 8 0.04 1.02
1:35 am 01:35 Cloudy with Light Rain 60 15.5 58 14.5 94 94 SW 6 9 30.02 1017 10 16 0.06 1.52
1:55 am 01:55 Cloudy with Heavy Rain 60 15.6 58 14.7 94 94 S 6 9 30.02 1017 5 8 0.13 3.30
2:10 am 02:10 Cloudy with Rain 60 15.5 58 14.5 94 94 N N/A 30.01 1016 4 6 0.06 1.52
2:35 am 02:35 Cloudy with Light Rain 60 15.5 58 14.7 95 95 N N/A 29.99 1016 7 11 0.14 3.56
2:55 am 02:55 Cloudy 60 15.5 59 14.8 96 96 ESE 7 11 30.00 1016 3 5 0.23 5.84
3:15 am 03:15 Cloudy with Thunderstorms 59 15.1 58 14.5 96 96 N N/A 30.00 1016 10 16 0.03 0.76
3:35 am 03:35 Cloudy 60 15.3 58 14.7 96 96 E 6 9 29.98 1015 10 16 0.03 0.76
3:55 am 03:55 Cloudy 60 15.5 59 14.9 96 96 ESE 8 13 29.98 1015 10 16 0.03 0.76
4:15 am 04:15 Cloudy 60 15.5 59 14.8 96 96 ESE 9 15 29.97 1015 10 16 N/A
4:35 am 04:35 Cloudy 60 15.5 59 14.8 96 96 SE 10 17 29.97 1015 10 16 N/A
4:55 am 04:55 Mostly Cloudy with Light Rain 60 15.5 59 14.8 96 96 SE 12 19 29.96 1015 10 16 N/A
5:15 am 05:15 Mostly Cloudy 60 15.3 58 14.7 96 96 SE 13 20 29.96 1014 10 16 N/A
5:35 am 05:35 Cloudy 60 15.5 59 14.8 96 96 SSE 10 17 29.97 1015 10 16 N/A
5:55 am 05:55 Cloudy with Light Rain 60 15.5 59 14.8 96 96 SE 10 17 29.96 1015 10 16 N/A
6:15 am 06:15 Cloudy with Light Rain 60 15.5 59 14.8 96 96 SE 10 17 29.97 1015 10 16 N/A
6:35 am 06:35 Cloudy with Light Rain 60 15.6 59 14.8 95 95 SSE 10 17 29.98 1015 10 16 N/A
6:55 am 06:55 Cloudy with Light Rain 60 15.7 59 14.8 94 94 SE 16 26 29.97 1015 10 16 0.01 0.25
7:15 am 07:15 Cloudy with Light Rain 60 15.6 58 14.6 94 94 SE 14 22 29.98 1015 10 16 0.01 0.25
7:35 am 07:35 Cloudy with Rain 60 15.6 58 14.7 94 94 SE 13 20 29.98 1015 10 16 0.04 1.02
7:55 am 07:55 Cloudy 60 15.7 59 15 96 96 ESE 16 26 29.97 1015 7 11 0.10 2.54
8:15 am 08:15 Cloudy with Light Rain 60 15.8 59 15 95 95 ESE 17 28 29.97 1015 7 11 0.03 0.76
8:35 am 08:35 Cloudy with Light Rain 61 16 59 15.2 95 95 SE 12 19 29.99 1016 10 16 0.05 1.27
8:55 am 08:55 Cloudy with Rain 61 16 60 15.3 96 96 SE 28 44 29.92 1013 5 8 0.08 2.03
9:15 am 09:15 Cloudy with Light Rain 61 16.1 60 15.5 96 96 SSE 9 15 29.96 1015 10 16 0.01 0.25
9:35 am 09:35 Cloudy 62 16.4 60 15.6 95 95 SW 14 22 30.01 1016 10 16 0.01 0.25
9:55 am 09:55 Cloudy 62 16.8 60 15.5 92 92 SW 8 13 29.98 1015 10 16 0.01 0.25
10:15 am 10:15 Mostly Cloudy 63 17.1 60 15.7 92 92 WSW 6 9 29.97 1015 10 16 N/A
10:35 am 10:35 Partly Cloudy 64 17.9 61 16 89 89 WSW 3 6 29.97 1015 10 16 N/A
10:55 am 10:55 Mostly Cloudy 65 18.4 60 15.8 85 85 S 6 9 29.97 1015 10 16 N/A
11:15 am 11:15 Cloudy 65 18.5 60 15.5 83 83 S 6 9 29.96 1015 10 16 N/A
11:35 am 11:35 Cloudy 67 19.2 62 16.4 84 84 SSE 9 15 29.93 1014 10 16 N/A
11:55 am 11:55 Cloudy 68 20 62 16.5 80 80 SSE 12 19 29.94 1014 10 16 N/A
12:15 pm 12:15 Cloudy 68 19.9 62 16.5 81 81 SSE 12 19 29.94 1014 10 16 N/A
12:35 pm 12:35 Cloudy 68 20 62 16.5 80 80 SSE 14 22 29.93 1013 10 16 N/A
12:55 pm 12:55 Cloudy 69 20.4 62 16.7 79 79 SSE 17 28 29.91 1013 10 16 N/A
1:15 pm 13:15 Cloudy 66 19.1 62 16.6 86 86 S 15 24 29.92 1013 10 16 N/A
1:35 pm 13:35 Cloudy 68 19.8 63 17 84 84 S 14 22 29.91 1013 10 16 N/A
1:55 pm 13:55 Cloudy 69 20.7 63 17.1 80 80 SSE 13 20 29.89 1012 10 16 N/A
2:15 pm 14:15 Cloudy 69 20.7 63 17 79 79 S 14 22 29.88 1012 10 16 N/A
2:35 pm 14:35 Cloudy 68 20.2 63 17.2 83 83 S 14 22 29.89 1012 10 16 N/A
2:55 pm 14:55 Cloudy 69 20.6 63 17 80 80 S 18 30 29.88 1012 10 16 N/A
3:15 pm 15:15 Cloudy 69 20.3 63 17 81 81 S 16 26 29.88 1012 10 16 N/A
3:35 pm 15:35 Cloudy 68 20 63 17.1 83 83 SSE 16 26 29.88 1012 10 16 N/A
3:55 pm 15:55 Cloudy 67 19.6 63 17.3 87 87 S 14 22 29.88 1012 10 16 N/A
4:15 pm 16:15 Cloudy 68 20 64 17.5 86 86 S 13 20 29.87 1011 10 16 N/A
4:35 pm 16:35 Cloudy 68 20.2 64 17.5 85 85 S 14 22 29.87 1011 10 16 N/A
4:55 pm 16:55 Cloudy 68 20.2 64 17.6 85 85 S 12 19 29.87 1011 10 16 N/A
5:15 pm 17:15 Cloudy 68 20.1 64 17.7 86 86 S 7 11 29.87 1011 10 16 N/A
5:35 pm 17:35 Cloudy with Drizzle 67 19.7 65 18.3 92 92 S 8 13 29.86 1011 4 6 N/A
5:55 pm 17:55 Cloudy 68 20 66 18.7 92 92 SSW 6 9 29.86 1011 10 16 N/A
6:15 pm 18:15 Cloudy 69 20.3 65 18.5 89 89 S 7 11 29.84 1011 10 16 N/A
6:35 pm 18:35 Cloudy 69 20.5 65 18.6 89 89 SSE 8 13 29.83 1010 10 16 N/A
6:55 pm 18:55 Mostly Cloudy 69 20.6 65 18.6 88 88 SSE 6 9 29.83 1010 10 16 N/A
7:15 pm 19:15 Cloudy 69 20.7 65 18.6 88 88 SSE 6 9 29.83 1010 10 16 N/A
7:35 pm 19:35 Cloudy 69 20.7 66 18.7 88 88 SE 5 7 29.83 1010 10 16 N/A
7:55 pm 19:55 Cloudy 69 20.7 66 18.7 88 88 N N/A 29.82 1010 10 16 N/A
8:15 pm 20:15 Cloudy 69 20.7 65 18.6 88 88 E 7 11 29.81 1010 10 16 N/A
8:35 pm 20:35 Cloudy 70 21 65 18.5 86 86 N N/A 29.81 1009 10 16 N/A
8:55 pm 20:55 Cloudy 70 21.2 65 18.5 85 85 SSW 6 9 29.82 1010 10 16 N/A
9:15 pm 21:15 Partly Cloudy 69 20.6 62 16.9 79 79 SW 10 17 29.82 1010 10 16 N/A
9:35 pm 21:35 Partly Cloudy 67 19.5 57 13.9 70 70 SSW 9 15 29.82 1010 10 16 N/A
9:55 pm 21:55 Mostly Cloudy 68 20.1 59 15.2 74 74 SSW 7 11 29.82 1010 10 16 N/A
10:15 pm 22:15 Cloudy 68 19.8 61 15.9 78 78 SSW 9 15 29.85 1011 10 16 N/A
10:35 pm 22:35 Cloudy 68 19.9 64 17.9 88 88 S 10 17 29.85 1011 10 16 N/A
10:55 pm 22:55 Mostly Cloudy 67 19.7 64 18 90 90 S 12 19 29.85 1011 10 16 N/A
11:15 pm 23:15 Partly Cloudy 67 19.4 64 17.8 91 91 S 10 17 29.84 1011 10 16 N/A
11:35 pm 23:35 Clear 66 19.1 64 17.8 92 92 SSE 8 13 29.84 1011 10 16 N/A
11:55 pm 23:55 Clear 66 19 64 17.8 93 93 S 9 15 29.85 1011 10 16 N/A

Powered by AerisWeather